Truckee, CA

9:27 AM PST on February 25, 2017 (GMT -0800)
Truckee-Tahoe

Weather History for KTRK - September, 2013

Change the Weather History Date:

Tuesday, September 24, 2013

  Actual Average Record
Temperature  
Mean Temperature 47 °F -  
Max Temperature 62 °F 72 °F 86 °F (1952)
Min Temperature 32 °F 33 °F 20 °F (1958)
Degree Days  
Heating Degree Days 18    
Moisture  
Dew Point 29 °F    
Average Humidity 47    
Maximum Humidity 75    
Minimum Humidity 26    
Precipitation  
Precipitation 0.00 in - - ()
Sea Level Pressure  
Sea Level Pressure 30.02 in    
Wind  
Wind Speed 9 mph (SW)    
Max Wind Speed 29 mph    
Max Gust Speed 39 mph    
Visibility 10 miles    
Events      
Averages and records for this station are not official NWS values.
T = Trace of Precipitation, MM = Missing Value Source: NWS Daily Summary

Daily Weather History Graph

Daily Weather History Graph

Search for Another Location

Airport or City:

Trip Planner

Search our weather history database for the weather conditions in past years. The results will help you decide how hot, cold, wet, or windy it might be!

Date:

Astronomy

Sep. 24, 2013 Rise Set
Actual Time 6:50 AM PDT 6:53 PM PDT
Civil Twilight 6:23 AM PDT 7:20 PM PDT
Nautical Twilight 5:52 AM PDT 7:51 PM PDT
Astronomical Twilight 5:20 AM PDT 8:23 PM PDT
Moon 10:17 PM PDT (9/24) 12:07 PM PDT (9/24)
Length of Visible Light 12h 56m
Length of Day
12h 03m
Waning Gibbous, 72% of the Moon is Illuminated
Sep 24
Waning Gibbous
Sep 26
Last Quarter
Oct 4
New
Oct 11
First Quarter
Oct 18
Full

Hourly Weather History & Observations

Time (PDT) Temp. Windchill Dew Point Humidity Pressure Visibility Wind Dir Wind Speed Gust Speed Precip Events Conditions
12:35 AM 37.4 °F 34.9 °F 24.8 °F 60% 30.15 in 10.0 mi South 3.5 mph - N/A   Clear
12:55 AM 37.4 °F - 23.0 °F 56% 30.14 in 10.0 mi Calm Calm - N/A   Clear
1:15 AM 39.2 °F - 24.8 °F 56% 30.14 in 10.0 mi Calm Calm - N/A   Clear
1:35 AM 37.4 °F 34.9 °F 23.0 °F 56% 30.14 in 10.0 mi SE 3.5 mph - N/A   Clear
1:55 AM 35.6 °F - 23.0 °F 60% 30.13 in 10.0 mi Calm Calm - N/A   Clear
2:35 AM 35.6 °F - 24.8 °F 65% 30.12 in 10.0 mi Calm Calm - N/A   Clear
2:55 AM 32.0 °F - 24.8 °F 75% 30.11 in 10.0 mi Calm Calm - N/A   Clear
3:15 AM 35.6 °F - 26.6 °F 70% 30.10 in 10.0 mi Calm Calm - N/A   Clear
3:35 AM 41.0 °F 37.1 °F 26.6 °F 57% 30.09 in 10.0 mi SW 5.8 mph - N/A   Clear
3:55 AM 48.2 °F - 26.6 °F 43% 30.09 in 10.0 mi SW 5.8 mph - N/A   Clear
4:15 AM 48.2 °F - 28.4 °F 46% 30.08 in 10.0 mi South 8.1 mph - N/A   Clear
4:35 AM 51.8 °F - 30.2 °F 44% 30.07 in 10.0 mi South 8.1 mph 20.7 mph N/A   Clear
4:55 AM 53.6 °F - 28.4 °F 38% 30.07 in 10.0 mi South 12.7 mph - N/A   Clear
5:15 AM 53.6 °F - 28.4 °F 38% 30.06 in 10.0 mi SSW 9.2 mph 20.7 mph N/A   Clear
5:35 AM 53.6 °F - 26.6 °F 35% 30.06 in 10.0 mi South 10.4 mph 19.6 mph N/A   Clear
5:55 AM 53.6 °F - 26.6 °F 35% 30.06 in 10.0 mi SW 9.2 mph 17.3 mph N/A   Clear
6:15 AM 50.0 °F - 26.6 °F 40% 30.06 in 10.0 mi South 6.9 mph - N/A   Clear
6:35 AM 48.2 °F - 26.6 °F 43% 30.06 in 10.0 mi Calm Calm - N/A   Clear
6:55 AM 50.0 °F - 24.8 °F 37% 30.07 in 10.0 mi WSW 3.5 mph 16.1 mph N/A   Scattered Clouds
7:50 AM 55.4 °F - 24.8 °F 31% 30.07 in 10.0 mi SSW 12.7 mph 20.7 mph N/A   Mostly Cloudy
8:45 AM 57.2 °F - 23.0 °F 27% 30.08 in 10.0 mi SW 12.7 mph 21.9 mph N/A   Mostly Cloudy
9:45 AM 55.4 °F - 26.6 °F 33% 30.07 in 10.0 mi SW 23.0 mph 26.5 mph N/A   Mostly Cloudy
10:45 AM 59.0 °F - 32.0 °F 36% 30.05 in 10.0 mi SSW 21.9 mph 31.1 mph N/A   Scattered Clouds
11:45 AM 62.6 °F - 33.8 °F 34% 30.05 in 10.0 mi WSW 17.3 mph 29.9 mph N/A   Scattered Clouds
12:45 PM 62.6 °F - 32.0 °F 32% 30.02 in 10.0 mi SW 28.8 mph 39.1 mph N/A   Scattered Clouds
1:50 PM 62.6 °F - 26.6 °F 26% 30.00 in 10.0 mi SW 25.3 mph 34.5 mph N/A   Scattered Clouds
2:50 PM 62.6 °F - 30.2 °F 30% 30.00 in 10.0 mi WSW 24.2 mph 33.4 mph N/A   Scattered Clouds
3:45 PM 60.8 °F - 30.2 °F 31% 29.99 in 10.0 mi SW 16.1 mph 33.4 mph N/A   Scattered Clouds
4:55 PM 59.0 °F - 30.2 °F 34% 29.97 in 10.0 mi SW 16.1 mph 27.6 mph N/A   Scattered Clouds
5:55 PM 57.2 °F - 32.0 °F 38% 29.96 in 10.0 mi SW 23.0 mph 28.8 mph N/A   Clear
6:15 PM 55.4 °F - 32.0 °F 41% 29.97 in 10.0 mi SW 11.5 mph 20.7 mph N/A   Clear
6:35 PM 53.6 °F - 32.0 °F 44% 29.97 in 10.0 mi WSW 12.7 mph 20.7 mph N/A   Clear
6:55 PM 51.8 °F - 32.0 °F 47% 29.95 in 10.0 mi SW 17.3 mph 26.5 mph N/A   Clear
7:15 PM 50.0 °F - 32.0 °F 50% 29.95 in 10.0 mi SW 18.4 mph 32.2 mph N/A   Clear
7:35 PM 50.0 °F - 32.0 °F 50% 29.95 in 10.0 mi SW 13.8 mph 27.6 mph N/A   Clear
7:55 PM 50.0 °F - 32.0 °F 50% 29.96 in 10.0 mi WSW 17.3 mph 24.2 mph N/A   Clear
8:15 PM 48.2 °F - 32.0 °F 54% 29.95 in 9.0 mi SW 19.6 mph 26.5 mph N/A   Clear
8:35 PM 48.2 °F - 32.0 °F 54% 29.94 in 10.0 mi SW 20.7 mph 29.9 mph N/A   Clear
8:55 PM 48.2 °F - 32.0 °F 54% 29.94 in 10.0 mi WSW 18.4 mph 34.5 mph N/A   Clear
9:15 PM 46.4 °F 39.2 °F 32.0 °F 57% 29.93 in 10.0 mi SW 18.4 mph 24.2 mph N/A   Clear
9:35 PM 46.4 °F 39.2 °F 30.2 °F 53% 29.91 in 10.0 mi SW 18.4 mph 27.6 mph N/A   Clear
9:55 PM 46.4 °F 39.5 °F 30.2 °F 53% 29.92 in 10.0 mi WSW 17.3 mph 27.6 mph N/A   Clear
10:15 PM 46.4 °F 39.2 °F 28.4 °F 50% 29.92 in 10.0 mi SW 18.4 mph 28.8 mph N/A   Clear
10:35 PM 46.4 °F 39.5 °F 28.4 °F 50% 29.91 in 10.0 mi SW 17.3 mph 27.6 mph N/A   Clear
10:55 PM 44.6 °F 37.8 °F 30.2 °F 57% 29.91 in 10.0 mi WSW 15.0 mph 23.0 mph N/A   Clear
11:15 PM 44.6 °F 37.4 °F 30.2 °F 57% 29.92 in 10.0 mi SW 16.1 mph 27.6 mph N/A   Clear
11:35 PM 44.6 °F 37.4 °F 30.2 °F 57% 29.91 in 10.0 mi SW 16.1 mph 21.9 mph N/A   Clear
11:55 PM 44.6 °F 38.8 °F 30.2 °F 57% 29.92 in 10.0 mi WSW 11.5 mph 23.0 mph N/A   Clear